DW6178 Weather Reports


time (UTC)temp
C
wind
direction
speed
KPH
gust
KPH
rain 1hr
cm
rain 24hr
cm
rain mn
cm
humidity
%
barometer
mb
20260507130043 12 310 0.0 1.6 0.00 0.00 0.00 44 1016.3
20260507124523 12 310 1.6 3.2 0.00 0.00 0.00 46 1016.3
20260507123023 12 310 0.0 3.2 0.00 0.00 0.00 45 1016.2
20260507121505 12 310 0.0 3.2 0.00 0.00 0.00 45 1016.2
20260507120005 12 310 1.6 3.2 0.00 0.00 0.00 46 1016.4
20260507114544 12 310 1.6 3.2 0.00 0.00 0.00 46 1016.4
20260507113041 12 331 1.6 3.2 0.00 0.00 0.00 50 1016.4
20260507111524 12 316 1.6 4.8 0.00 0.00 0.00 52 1016.5
20260507110024 11 326 0.0 3.2 0.00 0.00 0.00 56 1016.5
20260507104506 12 326 0.0 3.2 0.00 0.00 0.00 55 1016.6
20260507103003 11 328 1.6 3.2 0.00 0.00 0.00 57 1016.6
20260507101548 11 321 0.0 3.2 0.00 0.00 0.00 56 1016.8
20260507100043 11 320 0.0 3.2 0.00 0.00 0.00 59 1016.8
20260507094524 11 320 1.6 3.2 0.00 0.00 0.00 60 1016.9
20260507093022 11 320 1.6 4.8 0.00 0.00 0.00 58 1017.1
20260507091503 11 330 1.6 3.2 0.00 0.00 0.00 55 1017.2
20260507090005 11 330 0.0 3.2 0.00 0.00 0.00 55 1017.3
20260507084544 11 330 1.6 3.2 0.00 0.00 0.00 55 1017.5
20260507083042 11 338 0.0 3.2 0.00 0.00 0.00 55 1017.7
20260507081523 11 337 0.0 1.6 0.00 0.00 0.00 53 1017.7
20260507080022 11 6 0.0 3.2 0.00 0.00 0.00 53 1017.7
20260507074524 12 8 0.0 4.8 0.00 0.00 0.00 52 1017.8
20260507073101 12 300 1.6 3.2 0.00 0.00 0.00 52 1017.9
20260507071540 12 309 1.6 4.8 0.00 0.00 0.00 56 1017.9
20260507070051 11 310 1.6 4.8 0.00 0.00 0.00 57 1018.2
20260507064520 11 321 0.0 0.0 0.00 0.00 0.00 59 1018.2
20260507063018 11 321 0.0 0.0 0.00 0.00 0.00 60 1018.3
20260507061601 11 321 0.0 0.0 0.00 0.00 0.00 61 1018.2
20260507060110 11 321 0.0 0.0 0.00 0.00 0.00 62 1018.3
20260507060002 11 321 0.0 0.0 0.00 0.00 0.00 62 1018.2
20260507054547 11 321 0.0 0.0 0.00 0.00 0.00 61 1018.3
20260507053049 11 321 0.0 0.0 0.00 0.00 0.00 63 1018.4
20260507051534 11 323 0.0 0.0 0.00 0.00 0.00 64 1018.6
20260507050022 11 323 0.0 0.0 0.00 0.00 0.00 67 1018.6
20260507044503 11 323 0.0 1.6 0.00 0.00 0.00 69 1018.6
20260507043003 10 323 0.0 0.0 0.00 0.00 0.00 75 1018.5
20260507041547 10 323 0.0 1.6 0.00 0.00 0.00 75 1018.5
20260507040045 10 323 0.0 1.6 0.00 0.00 0.00 77 1018.6
20260507034547 10 327 0.0 0.0 0.00 0.00 0.00 78 1018.4
20260507033031 10 334 0.0 0.0 0.00 0.00 0.00 77 1018.3
20260507031511 10 322 0.0 1.6 0.00 0.00 0.00 76 1018.1
20260507030010 11 302 0.0 4.8 0.00 0.00 0.00 74 1017.9
20260507024558 11 302 1.6 4.8 0.00 0.00 0.00 73 1017.9
20260507023053 11 307 0.0 0.0 0.00 0.00 0.00 75 1017.9
20260507021546 11 307 0.0 0.0 0.00 0.00 0.00 73 1017.9
20260507020038 12 277 0.0 0.0 0.00 0.00 0.00 70 1017.8
20260507014542 12 277 0.0 0.0 0.00 0.00 0.00 73 1017.8
20260507013036 13 277 0.0 0.0 0.00 0.00 0.00 67 1017.8
20260507011541 12 10 0.0 0.0 0.00 0.00 0.00 71 1017.7
20260507010042 13 252 0.0 1.6 0.00 0.00 0.00 74 1017.7
20260507004534 13 200 0.0 3.2 0.00 0.00 0.00 79 1017.7
20260507003033 13 280 0.0 4.8 0.00 0.00 0.00 76 1017.7
20260507001517 13 218 0.0 3.2 0.00 0.00 0.00 79 1017.6
20260507000014 13 188 1.6 6.4 0.00 0.00 0.00 83 1017.6
20260506234602 13 179 1.6 6.4 0.00 0.00 0.00 81 1017.6
20260506233100 13 179 1.6 8.0 0.00 0.00 0.00 80 1017.6
20260506231535 13 173 1.6 8.0 0.00 0.00 0.00 80 1017.8
20260506230031 13 166 1.6 9.7 0.00 0.00 0.00 77 1018.0
20260506224515 13 188 1.6 8.0 0.00 0.00 0.00 76 1018.1
20260506223011 13 191 3.2 11.3 0.00 0.00 0.00 76 1018.3
20260506221551 13 193 1.6 9.7 0.00 0.00 0.00 76 1018.4
20260506220052 13 200 3.2 8.0 0.00 0.00 0.00 72 1018.5
20260506214530 13 176 4.8 11.3 0.00 0.00 0.00 70 1018.8
20260506213028 13 166 4.8 9.7 0.00 0.00 0.00 70 1018.9
20260506211509 13 224 1.6 9.7 0.00 0.00 0.00 72 1019.1
20260506210006 13 188 3.2 11.3 0.00 0.00 0.00 73 1019.3
20260506204548 13 160 1.6 8.0 0.00 0.00 0.00 74 1019.4
20260506203045 13 169 4.8 9.7 0.00 0.00 0.00 75 1019.4
20260506201527 13 177 3.2 9.7 0.00 0.00 0.00 74 1019.7
20260506200023 13 217 1.6 9.7 0.00 0.00 0.00 73 1019.9
20260506194504 13 141 4.8 9.7 0.00 0.00 0.00 73 1020.1
20260506193002 13 214 1.6 6.4 0.00 0.00 0.00 72 1020.2
20260506191542 13 226 0.0 6.4 0.00 0.00 0.00 71 1020.4
20260506190041 13 217 0.0 6.4 0.00 0.00 0.00 71 1020.4
20260506184526 13 214 0.0 6.4 0.00 0.00 0.00 72 1020.6
20260506183023 13 149 0.0 3.2 0.00 0.00 0.00 72 1020.7
20260506181520 13 200 0.0 3.2 0.00 0.00 0.00 72 1020.8
20260506180017 12 161 0.0 0.0 0.00 0.00 0.00 69 1020.9
20260506174513 11 194 0.0 0.0 0.00 0.00 0.00 70 1021.0
20260506173011 11 158 0.0 0.0 0.00 0.00 0.00 71 1021.0
20260506171511 11 188 0.0 0.0 0.00 0.00 0.00 66 1021.0
20260506170011 11 245 0.0 0.0 0.00 0.00 0.00 63 1021.0
20260506164604 10 136 0.0 0.0 0.00 0.00 0.00 66 1020.8
20260506163049 10 314 0.0 0.0 0.00 0.00 0.00 74 1020.9
20260506161540 9 307 0.0 0.0 0.00 0.00 0.00 81 1020.7
20260506160018 7 307 0.0 0.0 0.00 0.03 0.00 93 1020.5
20260506154514 7 312 0.0 3.2 0.00 0.03 0.00 94 1020.6
20260506153052 6 330 1.6 4.8 0.00 0.03 0.00 94 1020.5
20260506151549 5 312 1.6 3.2 0.00 0.03 0.00 94 1020.6
20260506150029 5 316 1.6 4.8 0.00 0.08 0.00 94 1020.5
20260506144544 5 310 0.0 6.4 0.00 0.08 0.00 94 1020.5
20260506143006 4 310 1.6 4.8 0.00 0.08 0.00 94 1020.3
20260506141504 3 302 1.6 4.8 0.00 0.08 0.00 94 1020.0
20260506140058 3 302 1.6 6.4 0.00 0.18 0.00 94 1019.9
20260506134544 3 310 1.6 4.8 0.00 0.18 0.00 94 1019.9
20260506133022 3 307 1.6 3.2 0.00 0.18 0.00 94 1019.6
20260506131532 3 308 1.6 3.2 0.00 0.18 0.00 94 1019.5